Helicity
52 57 52 63 77 79 78 80 82 61 43 33 38 50 54 69 70 106 176 221 255 311 231 98 38 31 15 37 48 -10 2 39 14 8 11 41 75 65 231 109 170 -25 -24 107 265 360 385 14 221 206 226 173 309 351
51 51 56 75 84 80 69 75 56 51 52 36 43 54 71 85 65 80 143 168 185 257 192 46 31 61 39 25 12 13 11 -7 -7 -15 17 38 160 85 170 346 10 141 178 121 77 173 112 67 99 90 139 97 151 279
56 61 73 82 86 77 61 50 36 51 40 39 43 57 63 49 47 76 111 145 163 232 183 163 112 27 43 12 5 65 11 -25 -24 -37 -24 -4 39 113 170 173 125 121 162 123 176 155 167 134 111 88 111 156 137 177
62 69 75 77 67 51 44 44 46 42 31 36 42 49 32 41 42 62 98 114 128 132 175 103 48 81 21 15 -2 32 40 4 -18 -39 -21 -19 -4 48 70 125 224 180 190 155 160 191 171 164 156 186 115 153 183 159
75 79 74 67 45 37 41 48 22 31 39 41 40 20 8 29 33 46 88 112 109 104 135 127 104 170 71 74 31 10 65 40 37 54 88 107 58 -8 -17 7 17 89 152 211 200 170 173 193 173 153 130 100 97 132
89 73 71 56 57 62 49 33 20 31 43 29 20 12 -2 26 54 61 86 178 197 143 108 50 222 345 270 219 195 123 85 79 133 223 287 250 298 189 189 173 307 344 311 186 69 150 282 270 263 307 321 196 95 106
80 67 77 68 72 62 57 47 27 57 30 25 19 2 25 26 70 39 44 152 172 143 59 115 172 315 192 184 256 281 291 266 241 314 281 241 214 257 390 540 472 512 452 383 275 125 64 59 146 298 427 385 217 98
72 67 71 67 68 74 58 53 66 62 29 33 33 27 36 41 46 60 96 132 95 172 123 65 80 73 75 100 182 204 212 276 348 327 354 362 257 262 340 431 472 142 28 33 -4 44 68 58 57 106 150 197 469 315
65 73 74 85 101 95 72 66 64 6 -2 5 39 40 65 73 60 53 73 116 125 105 106 130 118 110 158 142 100 171 257 246 332 315 307 363 318 298 263 231 277 474 161 0 31 51 33 59 53 127 138 136 194 172
79 65 91 109 108 101 96 71 28 -12 15 36 79 72 90 76 73 49 75 86 103 107 107 134 140 117 91 114 99 111 145 176 221 230 304 299 263 206 187 -29 59 364 418 143 -1 41 51 81 49 50 54 99 88 100
79 73 89 98 97 93 74 85 10 19 66 57 87 74 61 91 33 34 39 30 39 46 112 120 171 137 159 85 90 113 88 127 152 168 184 183 236 136 123 85 -36 -10 223 503 355 48 47 106 79 47 17 14 32 63
86 84 74 75 86 114 77 55 43 51 18 16 20 55 101 96 43 17 11 19 31 56 98 87 72 160 115 100 80 110 56 104 89 110 82 132 114 40 78 61 80 -81 0 184 503 606 508 385 307 265 151 141 160 255
99 84 77 72 75 106 39 47 66 -45 4 51 67 40 32 31 20 30 35 45 48 100 118 143 113 96 116 89 67 29 50 68 92 71 48 46 -22 3 -34 -3 8 -42 -74 -16 14 81 276 446 607 614 610 597 703 536
102 80 64 52 62 71 55 46 91 69 23 28 21 22 9 18 36 39 25 47 51 35 87 55 18 59 37 62 22 14 20 55 45 21 12 3 0 25 25 -32 -19 27 -63 -56 -86 -86 -63 -14 120 140 244 378 510 540
95 76 51 44 45 48 60 44 103 88 33 10 25 33 10 14 12 15 24 24 12 -21 25 22 -6 37 52 43 26 29 34 27 28 16 11 15 15 10 10 21 16 -7 -8 -23 -22 -83 -77 -100 -81 -16 25 75 253 233
81 78 37 16 -3 27 30 35 73 42 8 26 22 7 10 8 4 5 9 8 10 28 24 49 32 37 51 55 39 40 40 16 14 34 35 37 16 1 8 4 8 6 2 9 -11 -11 -65 -91 -108 -117 -119 -97 -50 -17
60 36 -29 -12 32 62 47 36 26 20 17 20 26 15 12 12 17 15 19 24 34 28 33 44 54 48 46 61 49 44 26 29 23 28 43 56 34 11 -9 2 2 5 6 15 23 0 20 -25 -39 -63 -104 -72 -58 -94
43 -2 -15 24 23 25 45 29 27 14 26 18 24 20 18 19 16 13 9 9 22 24 34 42 38 43 49 40 39 48 52 49 99 50 47 26 37 -15 -11 -5 -19 -19 -10 -4 22 4 3 55 54 2 4 11 -7 -51
37 54 71 62 5 23 25 32 7 38 35 33 9 16 6 37 34 26 16 11 9 9 24 32 48 46 44 50 41 40 48 50 29 24 55 71 39 9 60 24 -5 -14 -17 -3 -7 11 1 -1 28 49 35 9 33 95
75 78 67 56 41 20 32 45 25 33 41 36 22 40 13 6 57 29 36 17 9 27 34 42 48 48 46 52 42 33 35 26 29 25 26 24 30 2 50 28 4 -16 2 -13 9 26 25 16 -9 -17 -8 24 40 33
-4 25 20 42 35 29 5 2 24 53 17 27 57 69 32 20 47 54 43 39 34 35 50 51 50 83 74 62 54 33 42 26 21 15 19 20 21 8 34 13 19 8 19 13 17 26 29 37 36 22 50 27 17 11
6 6 12 42 12 30 20 42 19 32 34 14 28 22 39 39 30 77 16 38 70 60 50 50 67 43 60 74 38 35 81 45 23 19 48 21 18 21 42 28 22 33 16 28 19 30 40 11 20 15 28 17 7 -4
33 26 17 18 18 31 31 25 27 48 38 26 25 39 40 53 97 62 39 74 124 135 136 124 72 58 60 29 55 87 152 67 36 40 41 41 15 13 18 10 13 40 42 18 -1 13 26 8 -2 6 42 43 14 22
23 2 -1 19 38 37 35 28 40 39 49 48 69 66 39 84 58 26 55 72 163 83 145 102 61 31 78 84 48 72 112 70 46 49 45 70 39 40 1 24 11 50 90 3 3 15 26 26 16 29 45 31 53 31
21 11 33 25 17 28 32 26 30 24 37 56 71 99 97 102 73 54 46 80 147 185 223 116 86 73 36 47 51 67 117 88 69 45 95 75 63 48 48 22 25 84 91 11 19 20 28 32 40 32 60 20 35 54
17 36 36 26 37 31 14 25 37 35 23 39 66 97 79 55 22 67 68 164 142 179 183 160 100 52 38 62 98 124 108 105 69 67 94 49 67 61 53 46 48 95 79 30 34 59 63 69 59 48 39 24 -5 69
25 42 56 54 23 20 28 14 12 12 13 -17 28 84 166 152 46 98 76 61 101 151 168 179 151 38 38 85 62 81 74 83 117 43 65 40 22 50 27 35 59 20 14 22 61 69 70 65 69 74 78 92 81 64
26 3 16 60 61 12 55 41 -21 80 65 29 22 119 84 59 105 31 68 95 93 219 210 167 132 37 126 65 76 91 64 27 66 39 16 50 24 41 57 25 53 48 14 44 22 55 64 71 72 71 63 85 68 36
-4 -24 -16 17 83 78 103 87 111 50 83 61 54 54 56 126 132 35 42 77 135 153 147 71 57 82 70 38 74 65 56 89 98 52 31 48 58 68 71 51 31 28 20 72 72 55 20 25 55 48 71 31 37 21
59 80 54 37 22 66 49 38 35 47 47 55 30 23 77 48 90 61 63 96 122 89 62 72 54 43 32 21 33 87 16 51 84 148 72 63 67 62 81 45 31 40 40 33 44 42 12 -14 18 -5 32 51 46 45
47 -1 28 26 23 43 80 100 47 37 65 61 101 110 -19 183 124 36 65 75 51 42 44 54 72 60 84 87 145 132 71 42 85 126 41 0 33 74 59 46 29 50 57 42 40 50 60 51 49 58 49 43 37 35
29 39 41 25 10 24 21 63 47 24 30 41 89 22 99 136 141 102 59 62 27 47 86 60 123 226 189 88 90 102 64 111 125 144 173 98 46 48 32 19 26 42 48 49 42 43 39 39 37 33 26 26 29 27
0 23 26 17 26 50 81 50 68 65 35 54 151 68 98 194 141 148 118 75 65 56 101 137 137 124 84 72 56 45 130 190 131 78 61 50 60 52 65 91 81 58 43 86 83 58 53 39 31 34 30 27 25 20
Wind_Speed
30 30 35 30 32 34 37 35 31 28 25 25 22 27 31 29 16 18 23 13 11 16 13 5 7 8 9 7 14 5 14 19 26 31 30 34 46 48 60 54 55 75 84 89 86 93 83 19 37 36 33 28 29 29
28 31 28 30 32 34 36 33 30 25 23 26 20 30 33 27 17 20 23 16 12 17 14 7 9 16 22 23 14 14 13 11 25 22 32 35 48 46 56 67 41 71 65 75 83 98 74 52 45 35 38 37 37 39
26 27 27 31 33 34 35 30 25 22 20 19 28 38 33 17 14 21 23 28 26 23 17 20 26 15 20 25 24 21 19 23 22 17 20 32 40 47 56 64 65 62 59 66 83 89 85 71 63 57 52 52 48 50
24 25 28 33 39 40 37 28 20 19 23 29 36 32 6 10 18 24 30 28 31 32 32 36 47 32 16 28 23 26 24 21 21 18 22 26 31 39 52 67 82 79 80 82 89 89 86 89 83 75 72 70 69 67
25 27 31 41 49 46 32 19 30 15 26 31 18 3 5 17 28 33 36 34 34 34 29 28 25 35 15 18 18 20 27 22 20 21 23 22 21 25 46 59 76 77 90 102 112 94 95 95 89 88 90 90 85 82
28 27 38 35 26 19 19 30 30 17 20 13 3 8 18 31 35 35 39 39 38 36 36 41 36 39 35 35 38 31 20 20 25 27 24 23 22 20 22 23 32 71 87 102 122 115 118 116 110 100 96 88 86 82
27 25 22 17 15 14 17 25 24 13 6 10 19 35 40 34 28 38 38 39 39 41 41 45 50 45 41 48 50 47 45 46 42 38 32 25 21 26 17 6 31 41 58 86 97 103 126 132 123 106 100 96 96 95
24 22 15 13 14 17 22 20 12 4 9 26 38 43 42 46 46 41 45 44 40 42 42 44 36 38 38 43 54 48 50 52 52 46 42 36 30 31 20 37 43 35 7 7 78 93 104 100 105 108 99 92 97 98
25 20 13 13 13 14 16 15 9 8 25 37 38 33 32 34 37 39 42 41 32 40 52 49 45 40 35 40 35 40 46 55 52 57 54 54 53 54 28 36 67 79 75 52 63 59 64 72 84 91 91 89 94 96
27 26 17 12 13 13 15 16 5 12 35 39 32 29 36 36 45 42 36 39 37 38 39 41 41 38 29 31 36 38 39 48 53 59 58 62 66 35 46 80 83 77 68 70 40 30 27 38 51 64 73 80 86 89
29 26 26 17 13 11 9 23 32 40 40 31 29 36 39 39 32 33 35 35 32 29 32 28 30 34 33 33 32 34 38 39 52 55 54 61 61 42 48 72 101 91 73 58 47 33 23 22 30 48 59 67 70 73
29 17 25 27 14 11 8 48 36 34 26 27 31 34 37 34 35 36 42 37 36 35 25 16 34 30 34 34 35 33 35 42 53 46 56 61 40 31 36 52 49 96 85 60 51 47 55 43 32 28 28 28 25 23
27 25 17 18 12 19 1 19 26 20 20 25 28 29 35 38 50 48 49 42 39 36 17 8 48 30 34 31 32 38 44 44 41 53 57 65 61 33 42 52 48 46 66 65 67 60 50 40 34 30 33 31 28 15
30 28 22 15 12 14 2 25 32 32 29 34 34 45 44 41 44 46 47 40 38 43 18 36 55 44 36 46 46 45 45 46 50 56 59 68 74 76 71 61 57 48 55 44 64 62 54 53 38 35 35 41 47 30
37 34 21 9 23 17 12 24 34 35 36 40 39 43 48 37 48 56 58 51 64 63 59 58 36 41 46 44 45 46 46 50 51 53 55 64 68 74 75 76 77 78 61 52 42 54 60 58 57 52 48 43 30 21
39 18 35 31 39 23 11 23 32 33 32 38 41 45 37 38 39 36 31 28 15 7 36 43 51 45 48 44 47 50 49 51 54 57 50 58 66 69 71 71 72 71 71 71 65 43 41 57 51 45 35 35 30 25
24 33 52 51 42 14 14 27 34 36 33 34 42 47 44 41 38 41 42 39 17 44 50 43 49 48 42 44 49 47 53 50 49 53 52 53 62 65 66 67 67 67 66 64 64 61 55 57 55 53 55 45 31 24
25 32 41 36 30 17 29 31 35 32 36 35 38 45 45 48 48 52 56 59 52 48 49 47 48 55 47 48 51 50 52 51 46 44 48 51 51 58 57 66 64 63 61 59 58 52 54 51 50 49 49 51 48 44
13 24 26 24 13 24 28 34 28 31 32 35 39 47 44 43 49 47 56 58 59 56 53 47 43 56 54 50 45 44 49 51 47 42 41 38 40 59 55 63 62 61 58 54 56 51 48 48 47 46 46 47 47 47
28 20 17 17 23 25 29 32 28 29 35 35 33 49 36 30 44 47 50 54 53 54 54 54 51 48 48 47 44 41 46 49 45 49 50 56 58 51 58 60 60 59 56 54 50 51 49 47 46 45 45 44 45 47
17 30 15 25 24 23 28 27 30 33 27 27 34 35 33 28 41 47 40 44 52 49 51 49 48 49 40 41 41 39 47 49 45 49 54 53 49 44 55 57 56 56 55 54 52 49 50 49 52 47 47 47 43 47
29 30 23 24 25 29 25 32 27 31 28 27 33 28 31 38 37 48 30 38 42 46 44 45 50 43 44 44 38 34 40 47 39 45 47 55 56 55 51 54 54 53 52 51 52 51 48 50 50 49 48 47 44 43
15 25 24 26 26 28 24 27 28 32 32 32 28 33 31 34 36 34 31 38 39 37 37 46 45 29 33 37 33 30 38 51 50 52 54 54 54 53 53 52 52 51 51 52 50 48 46 47 47 49 48 49 47 43
28 25 24 25 24 24 25 25 28 28 28 28 29 28 28 32 32 28 34 36 40 37 36 39 39 46 40 28 41 46 47 49 51 53 52 55 56 55 52 51 51 48 50 52 52 49 47 48 48 50 46 48 45 45
27 26 24 22 22 22 21 23 24 24 25 24 25 25 24 27 28 29 28 34 39 41 43 42 43 44 43 48 47 48 51 55 56 51 53 55 54 53 52 51 50 49 50 52 52 51 50 48 48 50 45 46 44 47
22 25 25 25 24 24 24 19 19 16 20 23 27 27 19 25 28 38 37 38 40 41 40 43 43 43 44 50 50 49 50 52 54 54 53 51 50 50 50 49 49 53 54 51 53 51 50 50 49 47 44 42 42 44
22 22 22 24 25 20 17 9 6 10 26 26 30 39 40 46 32 37 37 33 39 41 41 50 48 47 47 50 48 50 45 42 40 46 38 41 41 44 48 47 48 55 42 46 50 50 51 49 47 46 46 45 44 45
17 22 16 17 12 21 41 54 49 29 37 24 36 42 37 33 33 29 44 43 40 43 42 44 42 30 42 42 42 46 46 48 35 36 49 34 37 44 48 47 45 40 42 42 48 50 50 49 47 47 46 45 43 44
24 36 23 11 25 23 29 31 29 22 28 30 34 40 34 30 38 34 49 50 47 48 48 49 41 35 34 38 32 30 33 41 45 44 45 43 43 47 50 50 50 50 50 39 43 44 47 43 43 43 44 43 42 40
23 23 17 10 13 37 37 14 12 14 37 40 37 37 38 41 43 52 49 48 51 52 51 42 36 36 37 40 48 53 46 38 41 43 44 44 44 45 48 48 48 47 47 46 44 39 41 40 35 40 41 41 42 43
27 12 22 21 3 31 23 15 14 34 31 32 40 46 27 42 53 43 48 51 54 51 45 48 44 41 44 48 48 46 44 46 43 41 42 36 48 49 50 47 45 44 44 46 45 45 46 44 41 41 41 42 43 44
16 15 15 33 30 29 30 35 23 35 33 33 32 29 37 41 48 45 57 58 56 56 45 48 50 52 51 45 47 46 39 48 49 47 48 48 48 44 39 41 42 42 41 41 40 41 42 42 41 41 41 42 43 44
18 16 20 28 21 31 26 25 36 33 29 41 38 31 54 52 52 49 51 53 52 51 51 50 49 47 47 47 47 43 43 47 49 50 53 51 47 46 43 49 49 45 46 45 43 40 39 40 41 41 41 41 41 42
Wind_Direction
352 349 351 342 339 340 342 342 336 335 325 309 305 354 359 360 359 13 20 58 60 28 359 9 239 234 217 156 89 96 103 112 217 275 276 268 253 257 244 250 239 231 232 233 233 229 228 307 262 241 247 260 263 263
351 350 341 337 335 337 343 340 339 332 329 294 339 359 360 2 5 21 24 59 106 53 36 319 251 228 216 211 203 133 162 162 146 199 280 278 265 267 258 238 254 239 244 239 237 234 243 265 263 272 272 263 263 262
350 342 331 337 336 340 344 341 334 322 314 345 0 4 6 11 29 39 47 54 64 49 40 52 60 88 148 188 177 128 142 142 150 192 191 233 274 276 256 251 260 261 265 252 247 245 249 259 263 264 270 266 267 266
339 316 327 339 346 350 353 351 332 339 3 6 7 9 335 59 68 72 64 71 64 64 63 63 52 62 126 137 174 184 185 187 186 188 162 174 219 275 273 271 260 261 264 256 254 252 255 252 255 260 264 266 266 266
303 318 339 352 356 360 1 314 288 331 7 9 4 332 159 108 94 86 80 80 81 81 84 73 70 79 115 142 141 165 159 151 149 149 158 162 175 212 255 279 270 270 263 256 252 258 259 255 257 260 261 259 262 263
303 334 356 359 359 352 301 289 289 314 5 9 235 175 118 112 100 94 82 84 88 87 94 83 87 89 87 94 98 111 136 149 146 130 132 133 150 161 150 201 244 269 276 269 260 262 260 258 257 260 260 261 261 262
308 344 343 346 348 325 305 296 298 352 337 95 111 94 94 113 122 92 93 91 98 104 100 96 89 94 90 91 92 93 94 93 99 102 109 115 127 126 124 285 284 266 247 254 267 266 257 253 252 256 258 260 260 260
313 315 316 330 325 313 305 309 341 346 129 107 105 98 95 95 92 93 88 99 111 103 110 98 95 89 88 88 84 92 89 87 87 89 86 89 100 106 73 322 322 314 28 309 276 265 259 259 252 249 253 257 259 257
303 301 307 321 331 332 328 6 30 215 125 104 102 108 107 102 100 98 102 111 119 109 87 85 83 86 87 85 97 92 87 77 82 75 77 75 75 67 4 345 343 342 350 3 315 289 262 253 248 245 247 253 255 257
294 290 294 315 319 353 8 41 164 167 108 97 105 111 97 95 86 99 113 98 100 97 94 80 73 72 90 87 83 86 85 77 70 69 79 70 66 31 2 4 360 352 352 359 322 318 281 259 249 245 249 254 257 259
290 288 288 294 308 333 6 61 81 75 82 95 110 93 86 92 112 108 90 85 86 93 81 80 70 63 82 79 84 87 82 83 69 66 67 63 58 36 2 0 16 8 8 7 8 359 327 299 265 254 257 258 260 263
287 282 285 288 296 321 41 40 73 101 109 115 107 97 85 89 75 66 49 61 64 60 63 67 41 57 65 76 73 82 80 75 61 66 58 55 53 19 23 1 32 16 14 21 24 30 25 20 10 348 312 266 260 268
283 277 272 272 284 300 16 86 91 157 160 117 107 101 71 60 29 28 21 29 28 29 46 340 26 53 57 63 59 55 51 59 62 46 44 34 353 348 347 352 357 5 10 14 20 24 25 27 30 22 22 43 60 56
283 275 264 251 269 288 229 70 71 79 95 78 80 55 48 42 29 20 13 18 18 11 19 16 5 26 42 26 29 25 30 33 31 23 20 13 9 24 34 6 348 352 0 6 15 20 22 21 27 35 39 37 47 51
287 279 249 117 280 284 84 83 69 78 76 69 71 56 40 48 31 12 5 11 341 331 348 358 23 19 16 22 24 21 16 6 7 4 6 1 2 1 9 18 23 14 350 352 353 9 20 19 22 21 23 26 36 38
293 254 48 283 293 275 116 96 85 80 91 77 69 52 63 59 55 55 54 53 50 12 42 30 8 12 9 16 10 5 2 356 357 355 2 358 351 350 354 350 4 10 18 17 14 345 353 21 18 18 16 21 23 23
266 57 328 313 299 231 162 100 76 75 81 79 55 48 52 55 56 50 48 49 55 51 39 45 29 24 31 18 10 12 358 1 3 4 5 4 356 351 348 348 352 355 4 4 3 18 360 27 31 33 32 21 10 1
70 22 295 296 291 161 100 86 69 75 67 66 56 44 45 40 40 36 33 32 41 48 48 48 47 27 32 25 15 15 8 11 18 19 15 4 1 360 357 351 348 351 355 0 345 13 9 3 7 19 20 27 23 15
215 248 250 254 233 102 87 66 84 66 60 51 39 26 32 40 37 39 27 28 30 34 39 47 48 29 28 30 32 29 22 17 16 18 22 26 21 354 0 351 350 351 350 357 359 354 2 3 0 353 356 6 5 354
238 214 192 194 93 95 72 60 72 62 45 37 44 22 39 50 35 33 32 27 28 32 35 36 36 34 31 34 37 36 28 19 19 16 12 3 359 7 358 355 350 347 354 351 0 354 354 356 352 356 349 346 348 350
182 37 149 87 92 87 63 62 58 49 55 55 41 38 44 52 30 28 35 36 29 31 28 32 30 29 38 38 35 37 30 25 21 10 5 6 11 13 360 356 359 357 353 349 350 359 355 347 340 347 340 342 351 343
27 285 85 80 76 60 70 53 57 50 57 53 46 51 43 32 32 23 50 42 36 32 32 29 24 27 27 26 33 36 30 24 25 16 9 359 355 356 2 358 354 356 354 359 352 353 359 352 347 354 352 344 349 352
146 75 81 72 67 59 64 56 57 47 45 43 51 43 45 40 38 40 47 39 40 41 40 25 23 37 30 28 29 31 25 15 13 9 4 2 358 355 353 353 352 353 351 347 352 355 358 3 357 350 354 346 345 344
48 63 64 62 64 61 62 61 53 51 53 51 48 44 46 42 41 47 36 35 34 34 34 28 28 20 22 31 21 19 14 12 9 6 6 1 357 354 354 352 349 355 352 342 342 346 347 349 350 348 354 349 338 345
49 52 66 71 71 69 71 62 56 54 49 49 46 48 56 54 53 47 40 39 36 31 26 26 22 19 20 17 16 18 16 8 5 5 6 2 360 357 354 352 354 355 353 344 342 340 342 342 343 342 346 348 343 339
95 74 75 70 67 65 61 68 71 66 55 50 48 44 27 12 27 32 34 32 30 27 25 19 18 18 17 16 14 12 11 12 10 7 6 7 8 7 4 0 353 350 349 343 342 342 341 341 342 343 347 349 347 343
87 88 80 73 54 54 57 92 137 77 36 36 36 30 31 27 27 27 33 36 26 26 28 19 14 12 8 10 14 16 17 16 22 19 27 27 27 25 18 14 10 360 4 354 345 342 341 344 345 346 346 348 347 345
110 64 82 76 91 44 20 349 346 60 49 53 21 21 26 26 13 33 36 33 31 34 25 21 20 25 19 15 19 19 20 18 31 32 19 36 32 26 20 18 16 20 9 3 355 344 336 329 332 333 339 343 345 347
58 315 242 93 42 47 36 41 57 56 43 29 19 19 30 41 33 26 19 27 31 24 19 17 25 28 25 25 30 33 32 25 21 20 18 18 16 15 13 10 7 5 6 12 3 359 354 350 342 334 336 342 346 353
55 71 78 79 49 14 19 45 46 30 21 18 17 14 21 42 41 22 28 26 22 18 20 25 29 28 27 28 22 14 17 32 28 23 18 16 18 16 12 10 7 6 3 360 360 2 359 355 359 347 343 341 336 332
37 86 49 42 313 28 47 67 50 28 31 27 27 33 78 42 29 30 35 27 22 24 28 24 27 30 27 22 23 23 23 25 31 32 29 33 19 15 12 13 12 11 8 0 355 349 341 340 340 340 340 337 336 330
62 65 58 25 34 43 48 32 41 24 27 23 21 39 50 38 35 35 22 21 22 25 33 32 29 27 25 27 29 33 40 31 30 30 23 19 14 16 21 19 17 14 9 5 2 356 350 341 336 334 335 334 335 337
54 61 55 39 52 38 53 50 31 30 33 34 36 42 28 24 24 27 29 30 30 30 30 33 36 40 40 39 38 40 47 41 37 36 30 30 31 28 27 17 13 11 5 3 355 351 350 345 335 330 331 334 336 334